Wind_Speed
17 18 17 16 16 16 15 14 13 11 10 9 9 8 8 7 7 6 6 5 5 5 5 5 5 5 4 5 5 5 5 5 6 5 5 5 4 3 2 2 2 2
19 19 18 17 17 17 16 15 14 13 12 11 11 10 10 9 8 7 7 6 6 5 5 5 5 5 4 5 5 5 5 5 5 5 4 4 4 3 2 2 2 2
20 19 18 18 18 17 17 16 15 15 14 13 12 12 11 10 9 8 7 7 6 5 5 5 4 4 4 5 5 5 5 5 5 5 5 5 4 4 3 3 3 2
20 20 20 19 18 17 17 17 17 16 15 14 14 13 12 11 10 9 9 7 6 5 5 4 4 4 4 5 4 4 4 5 5 5 5 5 5 5 5 4 3 3
21 21 20 19 18 18 18 18 18 17 16 15 15 14 13 12 12 11 10 8 7 6 5 5 5 4 5 5 4 4 4 4 4 4 4 4 4 5 5 5 5 4
21 21 20 19 18 18 19 19 18 18 17 16 16 15 14 14 13 12 11 10 8 7 6 6 6 5 5 5 5 4 4 4 4 4 4 4 4 4 4 5 5 5
22 22 21 20 19 19 19 19 19 18 18 17 17 17 16 15 15 14 12 11 10 9 8 8 7 6 6 6 5 5 5 5 4 4 4 4 3 3 3 4 5 5
23 23 22 21 20 19 20 20 19 19 19 18 18 17 17 16 15 15 13 12 11 10 10 9 8 6 6 6 6 6 5 5 5 4 4 4 3 3 2 2 3 4
25 24 23 22 21 20 20 20 20 20 19 19 18 18 18 17 16 15 14 14 13 12 11 10 9 8 6 6 6 6 6 6 6 5 5 4 3 3 2 1 1 2
27 26 24 23 22 21 21 20 20 20 20 20 19 19 18 18 17 16 16 15 14 13 12 12 11 9 8 6 6 6 6 6 7 7 7 6 5 4 3 2 1 1
26 26 25 24 22 22 21 21 21 20 20 21 20 19 19 19 18 17 17 16 15 14 13 13 12 11 10 8 7 6 7 7 8 8 8 8 7 6 5 4 3 2
26 25 26 25 23 23 22 21 21 20 20 21 21 20 20 20 19 18 18 17 16 14 14 14 13 12 11 10 8 8 7 8 9 9 9 9 9 9 8 7 6 5
26 26 27 26 24 24 23 22 21 21 21 22 22 21 20 20 20 18 18 18 16 15 14 14 14 13 13 12 11 10 9 9 9 10 10 10 10 10 10 10 10 9
27 28 28 26 25 25 25 24 23 22 23 23 22 22 21 20 19 18 18 17 16 15 15 14 14 14 14 13 13 12 12 11 10 10 10 10 11 11 11 11 11 11
28 29 30 28 27 27 27 27 26 25 25 24 23 23 21 20 19 18 17 17 16 16 15 15 15 14 14 14 14 14 13 13 12 11 11 10 10 11 11 11 12 12
25 26 27 27 26 25 25 26 26 27 28 28 26 24 23 22 20 18 17 16 16 16 16 15 14 14 15 15 15 15 14 14 14 13 12 11 11 11 11 11 11 12
23 24 25 25 24 23 24 26 27 28 30 30 27 26 25 23 21 19 18 18 17 17 16 16 15 14 15 15 16 16 15 14 14 13 13 12 12 11 11 11 11 12
24 24 24 24 24 25 26 28 28 27 26 25 24 25 25 25 24 22 21 21 20 19 18 17 16 15 15 16 17 17 16 15 14 13 13 13 13 12 12 12 12 13
26 25 25 25 25 25 26 27 28 28 27 26 25 25 26 27 26 25 25 24 22 21 20 19 18 17 16 16 17 18 18 16 15 14 14 14 14 14 14 14 13 14
29 28 26 25 26 26 26 27 28 29 30 31 29 28 27 27 27 27 27 27 26 25 23 22 21 19 18 18 19 20 20 19 17 16 15 15 15 16 16 15 15 15
28 28 26 25 27 28 27 28 29 29 31 32 30 28 27 27 27 28 28 29 29 28 26 25 24 23 21 20 21 22 22 21 19 17 16 16 16 17 17 17 17 16
28 28 26 24 26 28 28 28 30 30 31 31 30 29 28 28 29 28 27 28 29 29 29 28 27 26 25 23 23 24 25 23 21 19 18 18 17 18 19 19 19 18
31 30 27 24 26 28 28 28 29 28 29 30 30 30 30 29 28 27 27 28 28 28 30 31 31 30 29 27 26 26 26 25 23 22 20 19 19 20 20 21 21 21
34 33 31 28 29 30 29 29 29 27 27 29 30 32 31 29 28 28 28 29 29 28 29 32 33 34 33 31 28 28 28 27 26 24 22 21 21 21 22 22 23 23
40 38 36 34 33 32 32 32 31 29 28 28 29 30 31 31 31 31 30 30 30 30 30 31 33 35 36 34 32 30 30 29 28 27 25 24 24 24 24 24 24 24
45 44 43 40 38 36 35 34 33 32 30 29 29 29 30 31 32 33 33 32 32 33 32 32 33 35 37 36 34 33 32 31 31 30 29 28 27 27 26 26 26 26
Wind_Direction
206 211 213 212 210 209 207 205 204 204 207 208 209 210 214 219 224 227 223 222 229 238 249 259 264 267 267 263 261 256 255 258 256 251 250 252 256 263 262 258 257 250
208 212 215 214 212 211 209 208 206 206 207 208 211 213 215 218 223 229 231 230 235 240 248 258 264 263 256 247 240 234 236 238 237 234 230 229 234 233 229 224 233 236
210 213 216 217 216 213 212 211 209 208 209 210 213 217 217 219 223 229 234 235 238 245 256 263 262 257 249 239 227 213 215 220 221 223 220 221 224 218 215 215 210 216
214 216 218 219 219 216 215 215 212 211 212 213 217 221 221 221 224 229 232 235 242 249 259 263 255 246 234 228 221 205 202 206 208 213 214 217 222 213 211 219 213 206
218 219 221 221 222 221 220 219 217 215 215 216 220 224 225 225 226 230 232 235 242 246 249 250 243 234 224 216 211 199 193 197 198 202 205 208 216 215 210 214 216 210
221 223 224 224 224 226 226 225 222 219 218 219 223 226 229 230 230 233 236 239 245 247 245 241 232 224 218 212 204 194 189 195 195 193 199 202 209 214 210 208 210 214
221 223 225 225 225 228 232 232 229 226 223 222 224 228 232 235 237 238 240 243 248 250 249 245 236 225 218 212 205 196 192 197 197 193 194 198 204 210 211 206 204 212
219 222 224 225 225 227 232 236 236 235 232 229 228 232 235 239 243 246 247 249 251 253 254 253 248 239 230 220 212 203 196 199 203 201 196 197 201 205 212 209 204 209
218 219 222 225 226 227 229 234 238 240 239 236 234 235 238 241 245 250 253 255 256 257 258 258 257 253 248 240 228 218 210 209 210 212 210 207 206 203 203 210 209 210
221 219 221 224 227 229 230 232 236 240 243 243 241 240 242 243 246 249 252 255 258 261 263 264 264 262 260 258 251 240 231 227 225 223 224 224 222 219 213 213 215 212
224 221 221 222 226 231 234 234 235 238 243 246 246 246 246 247 248 249 252 254 256 260 264 268 269 268 267 266 265 261 253 247 243 239 237 235 234 233 231 230 229 228
225 228 227 223 224 229 234 237 237 237 240 244 247 248 248 250 251 252 254 256 257 259 263 267 270 272 272 271 269 269 267 263 259 254 250 248 245 242 240 240 240 238
225 230 228 224 225 228 232 238 240 241 241 242 245 247 248 251 253 254 257 259 261 262 263 267 269 271 272 272 271 269 269 269 268 266 263 260 257 253 249 247 245 243
223 226 225 224 226 227 230 235 239 242 244 243 244 247 248 250 252 255 259 262 266 268 268 269 269 270 271 271 270 268 267 268 270 271 271 267 265 263 260 257 252 249
227 232 231 226 222 223 227 231 233 237 241 241 243 245 247 248 249 252 255 260 265 268 269 269 269 270 270 270 270 269 267 267 268 270 272 272 271 269 267 266 263 258
232 238 240 235 228 226 231 235 237 240 241 240 239 241 244 245 246 248 250 254 258 261 263 264 266 268 270 271 272 271 270 269 268 268 269 271 273 273 271 270 269 266
233 234 240 244 241 237 239 240 238 238 241 242 242 244 245 245 245 245 246 247 249 253 257 258 259 262 265 268 270 270 271 270 270 270 269 269 270 271 272 271 270 269
234 232 235 239 239 240 242 243 239 237 240 246 251 255 255 252 250 248 246 245 244 246 251 254 255 256 258 261 264 265 265 265 266 266 266 267 267 266 267 268 268 268
233 233 235 237 237 239 241 242 243 241 241 244 251 258 261 260 258 256 253 250 247 246 246 248 251 252 253 255 259 260 260 259 259 259 260 263 264 262 262 262 262 264
236 237 241 244 244 243 244 244 245 244 242 242 247 253 257 258 259 258 257 255 253 250 247 246 248 249 250 251 254 257 257 255 253 253 254 257 259 260 259 258 258 260
239 238 240 245 244 241 242 244 245 246 245 244 247 251 254 255 256 257 259 259 258 255 251 248 246 246 246 247 250 254 255 254 253 250 249 250 253 256 257 256 256 256
242 238 238 243 241 237 236 239 243 247 247 246 247 248 251 252 251 252 256 258 260 262 262 258 253 249 246 245 247 251 254 256 255 253 250 248 248 251 254 255 255 254
247 246 248 249 244 239 238 239 242 247 249 248 248 248 248 251 252 253 253 252 253 258 263 263 261 257 252 247 246 249 253 256 256 255 253 251 250 251 252 253 254 253
253 253 255 255 250 247 245 243 244 247 248 249 250 249 249 250 252 254 255 255 252 250 253 258 261 261 258 252 249 249 252 254 255 255 254 253 252 252 253 253 254 254
258 257 257 257 256 254 252 252 252 250 248 247 249 249 249 250 250 251 253 255 252 246 243 246 251 254 255 254 251 250 251 252 254 255 255 253 252 251 253 253 254 254
260 260 259 259 260 259 259 259 259 257 252 248 245 246 248 250 250 250 252 255 252 247 244 244 244 244 246 248 249 249 249 249 250 252 253 252 252 251 252 253 254 255
Height
5945 5946 5948 5949 5951 5953 5954 5955 5957 5958 5960 5961 5962 5963 5963 5964 5965 5966 5967 5967 5967 5968 5968 5969 5969 5969 5969 5969 5969 5970 5970 5971 5971 5971 5972 5972 5972 5973 5974 5974 5975 5975
5944 5946 5948 5949 5950 5952 5953 5955 5956 5958 5959 5960 5961 5962 5963 5964 5965 5965 5966 5967 5967 5968 5968 5969 5969 5969 5969 5969 5969 5970 5970 5970 5971 5971 5971 5971 5972 5973 5973 5974 5974 5975
5944 5946 5947 5948 5950 5951 5953 5955 5956 5957 5959 5960 5961 5962 5963 5963 5964 5965 5966 5967 5967 5968 5968 5969 5969 5969 5969 5969 5969 5970 5970 5970 5970 5971 5971 5971 5972 5972 5973 5973 5974 5974
5944 5945 5946 5948 5950 5951 5952 5954 5955 5957 5958 5959 5960 5961 5962 5963 5964 5964 5965 5966 5967 5968 5968 5969 5969 5969 5969 5969 5969 5969 5969 5970 5970 5970 5970 5971 5971 5972 5973 5973 5973 5974
5943 5945 5946 5948 5949 5951 5952 5953 5954 5956 5957 5959 5960 5961 5962 5963 5963 5964 5965 5965 5966 5967 5968 5968 5969 5969 5969 5969 5969 5969 5969 5969 5970 5970 5970 5970 5971 5971 5972 5973 5973 5974
5942 5944 5945 5947 5949 5950 5951 5952 5953 5955 5956 5958 5959 5960 5961 5962 5963 5963 5964 5965 5966 5966 5967 5968 5968 5968 5969 5969 5969 5969 5969 5969 5970 5970 5970 5970 5971 5971 5971 5972 5973 5973
5940 5942 5944 5946 5948 5949 5950 5952 5953 5954 5955 5957 5958 5959 5960 5961 5962 5963 5963 5964 5965 5966 5966 5967 5968 5968 5968 5969 5969 5969 5969 5969 5970 5970 5970 5970 5970 5971 5971 5972 5972 5973
5938 5939 5941 5943 5945 5947 5949 5950 5952 5953 5954 5955 5957 5957 5959 5960 5961 5962 5963 5964 5964 5965 5966 5966 5967 5968 5968 5969 5969 5969 5969 5969 5970 5970 5970 5970 5971 5971 5971 5972 5972 5973
5935 5937 5939 5941 5943 5945 5947 5949 5950 5952 5953 5954 5955 5956 5957 5959 5960 5961 5962 5963 5964 5964 5965 5966 5967 5968 5968 5969 5969 5969 5970 5970 5970 5970 5970 5970 5971 5971 5971 5972 5972 5973
5934 5936 5937 5939 5941 5943 5945 5947 5948 5950 5951 5953 5954 5955 5956 5957 5958 5959 5960 5962 5963 5964 5965 5966 5967 5968 5968 5969 5969 5970 5970 5970 5970 5970 5970 5970 5971 5971 5972 5972 5972 5973
5934 5935 5935 5937 5939 5941 5942 5945 5947 5949 5950 5951 5953 5954 5955 5956 5957 5958 5959 5960 5961 5962 5964 5965 5966 5967 5968 5969 5969 5970 5970 5970 5970 5971 5971 5971 5971 5971 5972 5972 5972 5973
5934 5935 5935 5935 5937 5938 5940 5942 5945 5947 5948 5950 5951 5952 5953 5954 5955 5956 5957 5958 5960 5961 5963 5964 5965 5966 5967 5968 5969 5969 5970 5970 5970 5970 5971 5971 5971 5972 5972 5972 5972 5973
5933 5933 5933 5934 5935 5936 5938 5940 5942 5945 5946 5947 5949 5950 5951 5953 5953 5955 5956 5957 5958 5960 5961 5962 5963 5965 5966 5967 5967 5968 5969 5969 5970 5970 5970 5971 5971 5972 5972 5972 5972 5972
5927 5929 5930 5931 5931 5932 5934 5936 5938 5941 5943 5944 5946 5947 5949 5950 5952 5953 5954 5955 5957 5958 5959 5960 5961 5962 5963 5964 5965 5966 5967 5968 5968 5969 5970 5970 5971 5971 5971 5972 5972 5972
5922 5925 5928 5928 5927 5928 5930 5931 5933 5936 5938 5939 5942 5944 5945 5947 5949 5951 5952 5953 5955 5956 5957 5958 5959 5960 5961 5962 5963 5964 5965 5966 5967 5968 5968 5969 5969 5970 5970 5971 5971 5972
5921 5924 5928 5929 5929 5929 5931 5931 5932 5934 5935 5935 5937 5940 5942 5944 5946 5948 5950 5951 5952 5953 5954 5956 5957 5958 5958 5959 5960 5961 5963 5964 5965 5966 5966 5967 5968 5968 5969 5970 5970 5970
5920 5923 5925 5928 5931 5932 5932 5931 5932 5934 5935 5935 5936 5938 5940 5941 5943 5945 5947 5948 5949 5950 5951 5953 5954 5955 5956 5956 5957 5958 5960 5961 5962 5963 5964 5965 5966 5966 5967 5968 5968 5968
5918 5920 5921 5923 5926 5929 5930 5931 5931 5933 5935 5935 5936 5938 5940 5940 5942 5943 5944 5945 5947 5948 5949 5950 5951 5952 5953 5953 5954 5955 5956 5958 5959 5961 5962 5962 5963 5964 5964 5965 5966 5966
5914 5916 5917 5919 5921 5923 5926 5928 5930 5931 5932 5932 5933 5935 5937 5938 5940 5941 5942 5943 5944 5945 5946 5947 5948 5949 5950 5951 5951 5951 5952 5954 5956 5957 5958 5959 5960 5961 5962 5962 5963 5964
5910 5913 5915 5916 5918 5920 5923 5925 5926 5927 5928 5927 5928 5930 5932 5934 5936 5938 5939 5941 5941 5942 5943 5944 5944 5945 5947 5947 5948 5948 5949 5950 5952 5954 5955 5956 5957 5958 5959 5959 5960 5961
5907 5910 5912 5913 5915 5917 5920 5921 5922 5924 5924 5925 5926 5928 5929 5930 5931 5933 5935 5937 5938 5939 5940 5941 5941 5942 5943 5944 5944 5944 5945 5946 5949 5951 5952 5953 5954 5954 5955 5956 5957 5958
5903 5906 5909 5910 5911 5913 5915 5917 5918 5920 5921 5923 5925 5926 5926 5927 5928 5929 5931 5933 5935 5937 5939 5940 5939 5939 5940 5940 5941 5941 5941 5943 5945 5947 5949 5950 5951 5951 5952 5952 5953 5954
5899 5902 5905 5907 5907 5908 5911 5913 5914 5916 5918 5920 5921 5923 5924 5925 5926 5927 5928 5928 5930 5933 5936 5938 5938 5938 5937 5937 5937 5937 5938 5940 5942 5944 5945 5947 5948 5948 5949 5949 5949 5950
5895 5897 5900 5902 5903 5904 5906 5908 5910 5912 5914 5916 5918 5919 5921 5922 5923 5924 5924 5924 5924 5926 5929 5932 5935 5936 5936 5935 5934 5934 5935 5937 5938 5940 5942 5943 5944 5945 5945 5946 5946 5947
5891 5893 5895 5897 5899 5900 5902 5904 5906 5908 5911 5913 5914 5915 5917 5918 5918 5919 5920 5920 5920 5920 5921 5923 5926 5930 5931 5931 5931 5930 5931 5932 5934 5936 5938 5939 5940 5941 5942 5942 5943 5944
5887 5888 5890 5893 5895 5897 5899 5900 5902 5904 5906 5909 5910 5911 5912 5913 5914 5915 5916 5917 5917 5917 5917 5917 5918 5920 5922 5924 5925 5925 5926 5927 5928 5931 5934 5935 5936 5937 5938 5939 5940 5940